Regional Weather Roundup
Issued by NWS

Home | Current Version | Previous Version | Graphics & Text | Print | Product List | Glossary On
Versions: 1 2 3 4 5 6 7 8 9 10 11 12 13 14 15 16 17 18 19 20 21 22 23 24 25 26 27
000
ASUS45 KTFX 051510
RWRMT
MONTANA REGIONAL WEATHER ROUNDUP
NATIONAL WEATHER SERVICE GREAT FALLS MT
800 AM MST MON DEC 05 2016

NOTE: "FAIR" INDICATES FEW OR NO CLOUDS BELOW 12000 FEET WITH NO
SIGNIFICANT WEATHER AND/OR OBSTRUCTIONS TO VISIBILITY.

MTZ001>007-043-051600-
WEST OF THE DIVIDE

CITY           SKY/WX    TMP DP  RH WIND       PRES   REMARKS
KALISPELL      LGT SNOW  22  20  92 S5        29.93R VSB 1
MISSOULA       MOCLDY    21  12  68 N5        30.00R
BUTTE          CLOUDY    13   0  56 NW10      29.84R WCI   0
MULLAN PASS    PTCLDY     8   4  83 VRB6      29.82R WCI  -2
ANACONDA         N/A     16   3  57 W13       29.87R WCI   2
DEER LODGE       N/A     16   7  67 N3        29.91R
EUREKA           N/A     25  21  86 SE9       29.93R WCI  15
HAMILTON         N/A     25   3  39 E3        29.99R
LIBBY            N/A     19  16  86 CALM      29.97R
PLAINS           N/A     22  11  62 CALM      30.01R
RONAN            N/A     25  12  57 CALM      30.00R
$$

MTZ008-052>055-051600-
SOUTHWEST MONTANA

CITY           SKY/WX    TMP DP  RH WIND       PRES   REMARKS
BOZEMAN        CLOUDY    20  11  68 N9        29.88R WCI   9
DILLON         CLOUDY    15  -1  49 SW12      29.86R WCI   2
W YELLOWSTONE  CLOUDY     7  -2  66 S7        29.77R WCI  -5
ENNIS          CLOUDY    18  -4  38 W8G15     29.89R WCI   7
THREE FORKS      N/A     19 -37   7 CALM      29.90R
TWIN BRIDGES     N/A     19  -5  34 W10       29.88R WCI   7
$$

MTZ009-010-012-014-046-048-049-054-051600-
EAST SLOPES AND CENTRAL MONTANA

CITY           SKY/WX    TMP DP  RH WIND       PRES   REMARKS
CUT BANK       CLOUDY     6   0  76 N22G30    29.94R WCI -15
GREAT FALLS    CLOUDY    14   9  80 N14       29.95R WCI  -1
HELENA         LGT SNOW  19  15  84 W8        29.91R FOG     WCI   9
CHOTEAU          N/A     12   9  85 NW10      29.96R HAZE    WCI  -1
CONRAD           N/A     11   5  76 NW7       29.97R WCI   0
$$

MTZ011-013-016-021-045-047-050-051-051600-
NORTH CENTRAL MONTANA

CITY           SKY/WX    TMP DP  RH WIND       PRES   REMARKS
HAVRE          CLOUDY    10   4  76 NW13      29.99R WCI  -5
LEWISTOWN      LGT SNOW  13   9  84 NW26G36   29.82R FOG     WCI  -7
N BAR RANCH    LGT SNOW  14   7  73 NW28G40   29.75R WCI  -6
CHINOOK          N/A     10   3  72 W23       29.96R WCI -10
$$

MTZ017>020-022>027-061-062-051600-
NORTHEAST MONTANA

CITY           SKY/WX    TMP DP  RH WIND       PRES   REMARKS
GLASGOW        LGT SNOW  17  14  88 NW30      29.78R FOG     WCI  -3
JORDAN           N/A     21  17  84 NW20G30   29.77R WCI   6
SIDNEY         FLURRIES  24  19  81 NW14      29.67R WCI  12
WOLF POINT     CLOUDY    24  17  74 NW21G32   29.73R WCI   9
PLENTYWOOD       N/A     19  19 100 NW33G45   29.59R VSB 0   WCI   0
POPLAR           N/A     21  16  79 NW20G29   29.69R WCI   6
SCOBEY           N/A     17   7  65 NW20      29.69R VSB 0   WCI   1
$$

MTZ028>42-056>058-051600-
SOUTHCENTRAL AND SOUTHEAST MONTANA

CITY           SKY/WX    TMP DP  RH WIND       PRES   REMARKS
BAKER          CLOUDY    22  17  81 NW23G32   29.66R WCI   6
BILLINGS       CLOUDY    22   9  57 NW22      29.80R WCI   6
LIVINGSTON     CLOUDY    17   8  67 NW17G29   29.82R WCI   1
MILES CITY     CLOUDY    24  14  65 NW18      29.77R WCI  10
BIG TIMBER     CLOUDY    21   9  58 W26G36    29.80R WCI   4
EKALAKA          N/A     21  14  74 W18       29.64S WCI   6
FORSYTH          N/A     23  16  74 NW13G23   29.80R WCI  11
LAUREL           N/A     21   3  45 NW8       29.82R WCI  11
ROUNDUP          N/A     20   5  52 NW12      29.75R WCI   8
$$

REGIONAL REPORTS...DAKOTAS

CITY           SKY/WX    TMP DP  RH WIND       PRES   REMARKS
WILLISTON      CLOUDY    23  18  81 NW23G29   29.59R WCI   7
MINOT          CLOUDY    21  18  88 SE3       29.52R
DICKINSON      CLOUDY    26  21  81 W28       29.55R WCI  10
BEACH          CLOUDY    23  21  93 NW28G38   29.65R WCI   6
CROSBY         LGT SNOW  19  19 100 N13       29.57R WCI   7
TIOGA          CLOUDY    19  19 100 NW23      29.53R WCI   2
WATFORD CITY   CLOUDY    25  23  93 W18G26    29.57R WCI  11
BISMARCK       CLOUDY    24  22  91 SW5       29.56S
GRAND FORKS    FOG       27  25  92 SE10      29.69S VSB 1   WCI  17
FARGO          CLEAR     23  20  88 E5        29.65S
BUFFALO SD       N/A     27  20  75 NW37G47   29.52R WCI   9
RAPID CITY     PTCLDY    32  27  81 NW28G36   29.54R WCI  18
$$

REGIONAL REPORTS...WYOMING/IDAHO/WASHINGTON

CITY           SKY/WX    TMP DP  RH WIND       PRES   REMARKS
GILLETTE       SNOW      21  19  92 N21       29.63R VSB 1/2 WCI   5
SHERIDAN       LGT SNOW  22  18  85 NW17      29.76R FOG     WCI   8
BUFFALO WY     BLWGSNOW  20  15  81 N28G37    29.66R VSB 1/2 WCI   2
CODY           FLURRIES  16  13  88 N13       29.75R WCI   2
YELLOWSTONE LA   N/A      0  -4  83 CALM      29.70R
IDAHO FALLS    CLEAR     17   4  56 W8        29.94R WCI   7
SALMON         CLOUDY    18   9  68 S17       29.98S WCI   2
BOISE          CLEAR     21  15  78 CALM      30.14R
SPOKANE        MOCLDY    20  17  88 SE6       30.04S WCI  12
$$

REGIONAL REPORTS...ALBERTA

CITY           SKY/WX    TMP DP  RH WIND       PRES   REMARKS
EDMONTON       FLURRIES   1  -4  78 NW12G18   30.09R WCI -15
CALGARY        CLOUDY     5  -4  66 N10       29.98R WCI -10
LETHBRIDGE     CLOUDY     7   0  72 N17       30.04R WCI -12
MEDICINE HAT   MOCLDY     5  -2  72 NW14G22   30.04R WCI -12
WATERTON GATE    N/A      5   1  85 NE5         N/A
CARDSTON         N/A      5   1  85 N5          N/A
MILK RIVER       N/A      5   1  85 N15G21      N/A  WCI -13
$$

REGIONAL REPORTS...SASKATCHEWAN

CITY           SKY/WX    TMP DP  RH WIND       PRES   REMARKS
SWIFT CURRENT  LGT SNOW   5   1  85 NW30G37   29.80R WCI -19
REGINA         CLOUDY    19  18  93 NW22      29.69R WCI   3
SASKATOON      FLURRIES  14   7  73 NW22      29.83R WCI  -4
VAL MARIE        N/A      9   3  78 N21G29      N/A  WCI -11
ROCKGLEN         N/A     10   9  92 NW23G32     N/A  WCI -10
ASSINIBOIA       N/A      3  -6  66 NW20G26     N/A  WCI -18
$$




USA.gov is the U.S. government's official web portal to all federal, state and local government web resources and services.